Other Public Products
Issued by NWS Grand Forks, ND

Home | Current Version | Previous Version | Text Only | Print | Product List | Glossary On
Versions: 1 2 3 4 5 6 7 8 9 10 11 12 13 14 15 16 17 18 19 20 21 22 23 24 25 26 27 28 29 30 31 32 33 34 35 36 37 38 39 40 41 42 43 44 45 46 47 48 49 50
559
FPUS83 KFGF 141231
OPUFGF
PRAIRIE TO PINES WEATHER ROUNDUP
NATIONAL WEATHER SERVICE EASTERN NORTH DAKOTA/GRAND FORKS ND
600 AM CST SUN FEB 14 2016

 **SATELLITE DATA USED TO AUGMENT SKY COVER AT AUTOMATED STATIONS**
 *****  WEATHER ACROSS EASTERN NORTH DAKOTA  *****

CITY           SKY/WX    TMP DP  RH WIND       PRES   REMARKS
GRAND FORKS    LGT SNOW  14   9  80 S20       29.89F WCI  -3
6HR MIN TEMP:  12; 6HR MAX TEMP:  14; 6HR PCP:  0.05;

GRAND FORKS AF CLOUDY    12   9  85 S18       29.85F WCI  -5
GRAND CITY NWS NOT AVBL
BUXTON           N/A     12  12  98 S23         N/A  WCI  -7
DEVILS LAKE    LGT SNOW  14  10  85 S13       29.75F FOG     WCI   0
6HR MIN TEMP:  11; 6HR MAX TEMP:  14; 6HR PCP: TRACE;

FARGO          LGT SNOW  14   9  80 S21G29    29.92F WCI  -4
6HR MIN TEMP:  13; 6HR MAX TEMP:  14; 6HR PCP:  0.01;

WAHPETON ARPT  CLOUDY    12   9  85 S17       29.94F WCI  -5
$$

 *****  WEATHER ACROSS CENTRAL AND WESTERN NORTH DAKOTA  *****

CITY           SKY/WX    TMP DP  RH WIND       PRES   REMARKS
JAMESTOWN      CLOUDY    13   9  84 S16G25    29.78F WCI  -3
6HR MIN TEMP:  13; 6HR MAX TEMP:  14; 6HR PCP: TRACE;

BISMARCK       LGT SNOW  25  21  85 CALM      29.76F FOG
6HR MIN TEMP:  19; 6HR MAX TEMP:  24; 6HR PCP: TRACE;

MINOT          CLOUDY    25  18  74 NW8       29.71F WCI  16
6HR MIN TEMP:  19; 6HR MAX TEMP:  25; 6HR PCP:  0.03;

MINOT AFB      CLOUDY    21  21 100 CALM      29.70F
6HR MIN TEMP:  15; 6HR MAX TEMP:  22; 6HR PCP: TRACE;

GARRISON         N/A     27  24  89 NW18      29.72F WCI  14
6HR MIN TEMP:  18; 6HR MAX TEMP:  27; 6HR PCP:  0.01;

WILLISTON      PTCLDY    27  23  85 W6        29.75F WCI  20
6HR MIN TEMP:  28; 6HR MAX TEMP:  35;

DICKINSON      CLEAR     28  25  88 W12       29.72F WCI  18
6HR MIN TEMP:  28; 6HR MAX TEMP:  33; 6HR PCP: TRACE;

HETTINGER      CLEAR     27  24  89 W12       29.78S WCI  17
6HR MIN TEMP:  27; 6HR MAX TEMP:  37;

$$

 *****  OTHER OBSERVATIONS NORTHEAST NORTH DAKOTA  *****

CITY           SKY/WX    TMP DP  RH WIND       PRES   REMARKS
WALHALLA       HVY SNOW  12  12 100 S14       29.82F WCI  -3
LANGDON        CLOUDY    12   9  85 S18G25    29.75F FOG     WCI  -5
CAVALIER       CLOUDY    14   9  79 S17G23    29.84F FOG     WCI  -3
GRAFTON        CLOUDY    12  10  92 S21G31    29.87F FOG     WCI  -6
CANDO          CLOUDY    14  12  92 S13       29.76F FOG     WCI   0
FORT TOTTEN      N/A     13  10  87 S13       29.95S WCI  -2
ROLLA          CLOUDY    12  10  92 S6        29.71F WCI   3
RUGBY          CLOUDY    16  14  93 SW3       29.72F
 ***** THE ABOVE OBSERVATIONS ARE NON NWS ARE NOT QUALITY
        CONTROLLED AND MAY MIS-REPORT RAIN FOR SNOW...
$$

 *****  OTHER OBSERVATIONS SOUTHEAST NORTH DAKOTA *****

CITY           SKY/WX    TMP DP  RH WIND       PRES   REMARKS
COOPERSTOWN    NOT AVBL
VALLEY CITY    CLOUDY    12  10  92 S13       29.84F WCI  -3
OAKES          CLOUDY    14  12  92 S10       29.84F WCI   1
GWINNER        CLOUDY    18  14  86 S10       29.88R VSB 3/4 WCI   6
SHEYENNE NWR     N/A     12   8  83 S13       29.95S WCI  -3
BUFFALO          N/A     12   8  83 S17         N/A  WCI  -5
WYNDMERE         N/A     12  10  92 SE17        N/A  WCI  -5
 ***** THE ABOVE OBSERVATIONS ARE NON NWS ARE NOT QUALITY
       CONTROLLED AND MAY MIS-REPORT RAIN FOR SNOW...
$$

  *****  WEATHER ACROSS NORTHERN MINNESOTA  *****

CITY           SKY/WX    TMP DP  RH WIND       PRES   REMARKS
FLAG ISLAND    CLOUDY     7  -2  66 S22       29.92F WCI -14
WARROAD        FLURRIES   9   1  72 S13       29.91F WCI  -7
ROSEAU         CLOUDY    12   5  73 S14       29.90F WCI  -3
HALLOCK        LGT SNOW  14  10  85 S22G30    29.86F WCI  -4
THF RVR FALLS  CLOUDY    10   5  79 S16       29.90F WCI  -7
6HR MIN TEMP:  10; 6HR MAX TEMP:  12;

HALSTAD          N/A     13  10  88 S22         N/A  WCI  -5
FOSSTON        CLOUDY    10   3  72 S17       29.92F WCI  -7
BAUDETTE       CLOUDY     5  -7  57 SE12      29.95F WCI -11
6HR MIN TEMP:  -2; 6HR MAX TEMP:   5;

WASKISH        CLOUDY     9  -4  56 SE7       29.96F WCI  -3
CROOKSTON      LGT SNOW  12   9  85 S22       29.92F WCI  -7
$$
  *****  WEATHER ACROSS CENTRAL AND WEST MINNESOTA  *****

CITY           SKY/WX    TMP DP  RH WIND       PRES   REMARKS
BEMIDJI        CLOUDY     6   0  74 SE10      29.95S WCI  -8
PARK RAPIDS    CLOUDY    10   0  63 SE12      29.95F WCI  -5
6HR MIN TEMP:   9; 6HR MAX TEMP:  10; 6HR PCP: TRACE;

WADENA         LGT SNOW   9   3  78 SE13G18   29.96F WCI  -7
DETROIT LAKES  LGT SNOW  12   9  85 S15       29.93F WCI  -4
MOORHEAD       MIX PCPN  12   9  85 S18G25    29.92F WCI  -5
FERGUS FALLS   LGT SNOW  12   9  85 SE16      29.97F WCI  -4
ELBOW LAKE     LGT SNOW  11   8  88 E17G23    29.95F VSB 3/4 WCI  -6
6HR MIN TEMP:  10; 6HR MAX TEMP:  12;

MORRIS MN      LGT SNOW  12   9  85 SE18      29.94F WCI  -5
STAPLES        LGT SNOW   9   1  72 SE10      29.98F WCI  -6
WHEATON        FLURRIES  14  10  85 SE17      29.94F WCI  -3
$$
  *****  WEATHER ELSEWHERE ACROSS MINNESOTA  *****

CITY           SKY/WX    TMP DP  RH WIND       PRES   REMARKS
DULUTH         CLOUDY     1 -12  54 SE12      30.10F WCI -16
6HR MIN TEMP:  -3; 6HR MAX TEMP:   1;

INTRNTL FALLS  CLOUDY     1 -12  54 SE8       30.02F WCI -13
6HR MIN TEMP: -13; 6HR MAX TEMP:   1;

ELY            CLOUDY   -18 -24  76 SE5       30.08F WCI -31
CLOQUET        CLOUDY     0 -13  55 E7        30.07F WCI -13
BRAINERD       LGT SNOW   6  -2  69 SE8       30.03S WCI  -7
6HR MIN TEMP:   4; 6HR MAX TEMP:   8; 6HR PCP: TRACE;

HIBBING        CLOUDY    -5 -13  68 SE10      30.06F WCI -23
6HR MIN TEMP: -16; 6HR MAX TEMP:  -5;

ALEXANDRIA     LGT SNOW  10   5  80 SE14      29.96S WCI  -6
6HR MIN TEMP:   9; 6HR MAX TEMP:  10; 6HR PCP: TRACE;

SAINT CLOUD    CLOUDY    10   0  63 SE10G18   30.05F WCI  -4
6HR MIN TEMP:   9; 6HR MAX TEMP:  10;

MINNEAPOLIS    CLOUDY    11   0  61 SE12      30.11F WCI  -3
6HR MIN TEMP:   7; 6HR MAX TEMP:  11;

$$

  *****  WEATHER ACROSS SOUTH DAKOTA  *****

CITY           SKY/WX    TMP DP  RH WIND       PRES   REMARKS
SIOUX FALLS    LGT SNOW  14   9  80 SE9       29.88F FOG     WCI   2
6HR MIN TEMP:  13; 6HR MAX TEMP:  14; 6HR PCP:  0.01;

BROOKINGS      LGT SNOW  12   9  85 S14       29.86S FOG     WCI  -3
WATERTOWN      LGT SNOW  12   7  80 S16       29.84S WCI  -5
6HR MIN TEMP:  12; 6HR MAX TEMP:  12; 6HR PCP: TRACE;

HURON          CLOUDY    15  11  83 S14G22    29.85F WCI   0
6HR MIN TEMP:  14; 6HR MAX TEMP:  15; 6HR PCP:  0.03;

SISSETON         N/A     13  10  88 S14       29.90F WCI  -2
ABERDEEN       FRZ RAIN  16  12  84 S13       29.84F FOG     WCI   2
6HR MIN TEMP:  15; 6HR MAX TEMP:  16; 6HR PCP:  0.11;

MITCHELL       CLOUDY    16  12  84 SE13      29.86F WCI   2
PIERRE         CLOUDY    27  26  96 W6        29.80S WCI  20
6HR MIN TEMP:  23; 6HR MAX TEMP:  27; 6HR PCP:  0.09;

MOBRIDGE       CLOUDY    23  20  88 CALM      29.76S
RAPID CITY     PTCLDY    32  24  72 W8        29.85S WCI  25
6HR MIN TEMP:  27; 6HR MAX TEMP:  40;

$$

  *****  SOME WEATHER IN NEARBY STATES *****

CITY           SKY/WX    TMP DP  RH WIND       PRES   REMARKS
GLASGOW MT     CLOUDY    30  24  78 W5        29.76F
6HR MIN TEMP:  27; 6HR MAX TEMP:  32;

GREAT FALLS MT CLOUDY    37  24  59 SW20      29.80R
6HR MIN TEMP:  35; 6HR MAX TEMP:  39; 6HR PCP: TRACE;

CHEYENNE WY    PTCLDY    38  11  32 VRB6      29.92F
6HR MIN TEMP:  32; 6HR MAX TEMP:  38;

SCOTTSBLUFF NE MOCLDY    25  22  88 CALM      29.93F
6HR MIN TEMP:  25; 6HR MAX TEMP:  35;

OMAHA NE       CLOUDY    22   8  55 S16       29.95F WCI   8
6HR MIN TEMP:  20; 6HR MAX TEMP:  22; 6HR PCP: TRACE;

DES MOINES IA  LGT SNOW  17  12  80 SE13      30.04S VSB 3/4 WCI   4
6HR MIN TEMP:  15; 6HR MAX TEMP:  18; 6HR PCP: TRACE;

DAVENPORT IA   FLURRIES  16   9  74 SE17      30.23F WCI   0
6HR MIN TEMP:  16; 6HR MAX TEMP:  18; 6HR PCP: TRACE;

CHICAGO IL     MOCLDY    14   2  58 SE10      30.36F WCI   1
6HR MIN TEMP:   9; 6HR MAX TEMP:  14;

EAU CLAIRE WI  CLOUDY     2 -10  57 E6        30.20F WCI  -9
6HR MIN TEMP:  -9; 6HR MAX TEMP:   3;

LA CROSSE WI   CLOUDY    11  -3  53 E10       30.22F WCI  -3
6HR MIN TEMP:   3; 6HR MAX TEMP:  11;

$$

  *****  SOME NATIONAL WEATHER *****

CITY           SKY/WX    TMP DP  RH WIND       PRES   REMARKS
LA GUARDIA NY  PTCLDY     1 -12  54 NW16G31   30.49R WCI -19       C1F1C2F2C3F3C4F4C5F5C6F6C7F7C8F8C9F9CaFaCbFbCcFcCdFdCe!



USA.gov is the U.S. government's official web portal to all federal, state and local government web resources and services.